Wind_Speed
10 8 5 5 4 4 3 2 3 5 5 6 6 6 7 7 8 8 7 7 8 7 7 7 7 8 9 9 10 10 10 10 10 10 10 11 10 10 9 9 9 9 9 9
11 9 8 7 6 5 5 5 5 5 5 7 7 7 7 6 7 7 7 7 8 7 5 6 7 8 9 9 10 10 11 11 11 11 12 11 11 10 9 9 9 10 10 10
13 11 10 9 8 7 6 6 7 7 7 7 7 7 7 7 7 6 6 6 7 7 6 6 7 8 8 9 10 10 11 11 12 12 13 12 11 10 10 10 10 10 10 10
14 13 12 11 9 9 7 8 9 9 9 8 9 8 8 8 6 6 6 7 6 6 7 7 8 8 8 9 10 10 11 12 13 13 13 12 11 11 10 10 11 11 11 10
14 13 13 11 10 9 9 9 9 9 9 8 8 7 8 8 7 7 7 6 6 6 7 8 9 8 9 10 10 11 11 13 14 14 14 13 12 11 11 11 12 12 12 11
15 14 13 12 11 10 10 10 10 10 10 9 8 8 8 9 9 8 7 7 6 7 8 8 9 9 10 10 11 12 13 14 15 15 14 13 12 11 11 12 13 13 13 13
16 14 13 13 12 12 12 11 11 11 11 10 9 9 8 9 9 9 8 8 7 7 8 9 10 10 11 12 12 13 14 15 15 15 15 14 12 12 12 12 13 14 14 14
17 15 14 14 14 14 13 13 13 13 12 11 10 10 10 10 11 10 9 9 8 8 9 10 11 11 12 13 13 14 15 15 16 15 14 13 13 14 13 14 14 14 15 15
16 15 14 15 15 15 15 15 14 14 13 11 12 12 12 11 10 10 10 10 10 10 10 10 11 12 12 13 14 15 15 16 15 15 15 14 14 15 14 15 15 16 16 17
16 16 16 16 16 16 15 15 15 15 14 14 14 14 12 10 11 11 11 12 12 11 11 11 12 12 13 13 14 15 15 15 15 15 15 15 15 16 16 16 16 17 18 17
17 18 17 18 18 17 16 15 16 16 15 15 15 14 12 11 11 12 12 12 12 12 12 12 13 13 13 14 15 15 16 16 16 16 16 16 16 17 17 17 18 18 18 18
18 19 19 19 18 18 17 16 16 16 16 16 15 13 12 12 13 13 13 12 12 12 13 13 13 14 14 15 15 16 17 17 17 17 17 17 18 18 18 18 19 19 18 19
18 19 18 18 18 18 18 18 17 16 16 16 16 14 13 13 14 15 15 14 14 14 14 14 14 15 15 16 16 17 18 18 18 18 18 19 19 19 18 19 19 19 19 19
20 20 19 18 19 19 18 18 18 17 17 17 16 14 13 14 15 16 16 16 15 15 15 16 15 16 17 17 17 17 18 18 18 18 19 20 20 20 19 19 20 20 20 20
22 21 20 20 19 19 18 18 19 19 18 18 16 15 14 15 16 16 17 17 16 16 16 16 16 17 17 18 18 18 19 19 19 20 21 21 22 21 20 20 20 20 20 20
23 22 21 21 20 20 19 19 19 20 20 19 18 17 17 17 17 18 18 18 17 16 16 17 17 17 18 18 19 19 20 20 20 21 22 22 22 22 22 21 21 20 20 20
23 23 22 20 19 20 21 20 20 21 20 19 19 18 18 18 18 18 18 18 17 16 16 17 17 18 18 19 20 21 21 22 21 21 21 21 22 22 22 22 22 21 21 22
24 23 22 21 21 22 20 20 20 21 21 20 20 19 20 20 20 19 19 19 18 17 17 18 18 19 20 20 21 22 23 23 23 23 22 21 22 22 23 23 23 23 23 23
26 25 25 24 24 24 22 21 21 21 21 20 20 20 20 20 19 19 19 20 19 19 19 20 20 20 21 22 22 23 23 23 23 23 23 23 23 23 24 24 24 24 24 24
28 28 28 26 26 25 23 22 22 21 21 21 21 21 22 21 20 20 20 21 21 21 21 21 22 22 22 23 23 23 23 23 24 24 24 24 24 24 25 25 25 25 25 25
29 29 28 28 27 26 24 24 22 22 21 21 22 21 21 20 20 20 21 21 22 21 22 22 23 23 23 23 24 24 25 24 24 24 24 25 25 25 25 25 25 25 25 26
31 29 28 28 28 27 25 24 23 22 22 22 22 21 21 21 21 21 21 22 22 22 23 22 23 24 24 24 24 25 25 25 25 24 24 25 25 26 26 26 26 27 27 27
32 31 30 29 29 27 26 25 24 23 23 23 23 22 22 23 23 23 23 23 23 23 24 25 25 25 25 25 25 25 25 26 26 25 26 26 26 27 27 27 27 28 28 28
32 32 32 31 30 29 28 27 25 25 24 24 24 23 23 24 24 24 25 25 25 25 25 26 26 26 26 26 26 26 27 27 27 27 27 27 27 27 27 27 27 28 28 27
32 32 32 31 29 28 27 26 26 25 25 24 24 24 24 24 25 26 26 26 26 26 26 25 26 25 26 26 27 27 28 27 27 27 26 26 26 27 27 27 27 27 27 26
32 31 31 30 30 29 28 27 27 27 26 25 25 25 25 26 26 27 27 27 27 27 27 27 27 27 27 28 28 27 28 27 26 26 26 26 26 26 27 28 28 28 27 27
Wind_Direction
205 209 219 226 228 238 250 296 325 327 324 337 342 344 347 352 353 358 4 2 357 357 360 356 357 356 357 2 3 3 358 354 353 354 352 350 346 341 332 332 333 332 331 327
210 217 223 229 237 245 259 281 306 313 312 323 331 337 339 337 341 345 350 355 355 358 2 355 350 348 349 352 357 2 360 355 350 348 346 345 341 339 336 328 330 329 326 325
217 217 223 236 249 261 271 277 295 304 309 313 318 331 334 331 335 332 336 342 348 346 342 340 340 342 346 349 351 351 351 351 349 346 344 342 338 336 334 332 332 330 325 322
217 222 229 236 252 264 266 275 291 299 302 307 308 313 321 326 329 332 337 338 337 328 331 333 336 337 339 344 346 346 346 345 342 339 339 340 337 334 333 332 333 333 329 325
221 228 237 241 250 259 268 274 287 296 302 301 302 308 314 318 324 329 331 335 331 329 331 333 335 331 334 337 340 342 341 339 335 333 333 334 332 330 328 330 331 328 326 326
222 229 240 248 252 259 266 273 288 295 301 296 295 299 308 317 322 322 324 329 328 326 328 331 330 328 326 328 333 335 334 335 334 331 329 328 326 325 324 325 326 324 323 323
224 230 241 250 257 264 268 273 283 287 292 293 293 295 305 314 315 315 319 321 322 322 324 325 324 321 321 323 326 330 330 329 328 328 327 326 324 324 321 322 321 319 318 320
229 233 239 249 257 265 271 276 280 286 293 294 292 296 304 305 307 307 311 314 315 317 319 320 320 320 320 321 323 326 326 325 324 323 324 325 324 324 321 319 320 319 317 315
238 241 245 254 261 265 268 272 277 283 285 289 292 295 299 301 302 304 304 308 307 308 311 313 316 317 317 318 320 322 324 325 325 321 319 320 318 317 316 316 318 318 317 315
244 248 247 255 260 262 267 271 278 282 283 287 293 299 300 301 303 302 301 304 304 304 303 306 308 311 316 316 317 320 321 324 324 321 318 316 316 314 311 310 313 316 316 316
248 251 252 257 259 262 266 269 274 277 280 288 293 296 301 300 301 303 303 302 302 303 302 306 309 310 312 316 317 319 318 318 317 316 315 314 312 310 309 309 309 311 312 312
250 254 254 256 257 260 264 268 271 273 278 283 287 290 293 295 297 300 302 301 301 303 304 307 310 312 313 314 315 319 317 314 313 313 312 311 308 306 305 305 307 307 307 309
249 253 253 252 256 259 262 265 268 271 273 278 281 288 287 291 294 296 298 300 298 300 303 306 309 311 311 311 312 314 316 313 311 310 310 311 308 304 302 303 305 304 304 306
251 254 257 259 262 264 264 261 263 268 270 274 278 282 283 287 291 295 297 300 300 301 303 304 306 308 308 310 312 313 315 314 312 310 309 308 309 306 306 306 306 303 302 305
252 256 258 260 261 260 259 260 263 268 271 274 277 278 281 285 289 293 296 298 299 302 304 304 303 306 308 309 310 310 312 312 312 310 311 310 309 306 308 309 307 305 305 306
251 255 256 259 259 257 259 263 265 268 272 273 274 278 282 286 292 295 296 295 296 300 302 303 303 305 307 307 307 308 310 311 311 310 310 311 312 310 310 312 308 304 305 306
249 251 253 256 257 259 262 265 267 270 272 273 276 277 282 287 291 294 294 292 296 299 301 303 305 307 307 306 306 306 307 309 309 308 309 311 311 312 313 312 310 307 304 304
250 253 254 256 257 260 263 266 269 271 272 272 276 281 282 285 288 290 293 295 297 299 302 303 304 305 305 305 306 306 306 307 307 307 307 308 309 311 312 312 309 307 305 303
250 254 256 257 258 260 262 264 267 270 271 274 276 278 281 283 285 288 292 294 296 299 301 302 303 304 304 305 305 306 306 307 307 306 307 307 308 310 309 309 308 307 306 305
251 253 255 258 260 260 261 264 268 269 270 273 275 278 282 283 285 290 292 293 294 297 299 299 300 302 303 303 304 305 304 304 304 304 305 305 306 308 308 307 305 305 305 305
250 251 253 256 258 259 261 264 267 269 271 272 275 278 282 285 288 290 291 292 293 294 296 298 298 299 300 302 303 304 303 303 304 303 304 305 306 307 308 306 304 303 303 303
250 250 252 253 256 258 262 264 266 270 273 273 275 277 279 282 285 289 292 293 293 294 295 296 297 298 301 303 303 303 304 304 303 303 304 304 305 306 306 305 304 303 303 303
250 250 251 252 256 258 260 260 263 267 270 271 273 276 278 280 283 286 291 294 294 293 295 298 300 298 299 301 302 302 304 305 303 303 304 305 305 306 306 306 305 305 306 304
249 251 251 252 255 257 259 260 263 266 270 272 273 275 276 279 282 286 291 293 293 293 295 296 297 297 298 299 300 301 301 303 302 300 301 302 304 306 306 306 306 306 306 305
249 250 251 252 254 257 259 262 265 267 269 271 273 275 276 278 281 285 288 290 291 291 293 295 296 297 297 297 299 300 300 300 300 300 301 302 304 307 307 308 308 306 305 304
249 250 252 253 254 257 259 261 264 267 268 270 271 272 274 276 280 283 286 288 289 289 290 293 295 296 297 297 297 299 300 299 299 300 301 303 305 307 308 309 309 307 305 303
Height
5906 5909 5909 5909 5909 5910 5909 5909 5909 5909 5907 5907 5906 5905 5904 5903 5902 5901 5899 5898 5896 5894 5892 5891 5890 5888 5887 5885 5883 5881 5879 5878 5876 5874 5871 5870 5869 5868 5867 5866 5865 5863 5862 5860
5907 5908 5908 5909 5909 5909 5909 5909 5909 5908 5907 5906 5905 5905 5903 5902 5901 5900 5898 5897 5896 5894 5892 5890 5889 5888 5886 5885 5882 5880 5878 5877 5875 5873 5870 5869 5868 5867 5866 5864 5863 5861 5860 5858
5905 5907 5907 5908 5908 5909 5908 5908 5908 5907 5907 5906 5905 5905 5903 5902 5900 5899 5897 5896 5894 5893 5891 5890 5888 5887 5885 5884 5882 5880 5878 5876 5874 5872 5870 5868 5867 5865 5864 5863 5861 5860 5858 5856
5903 5905 5906 5907 5907 5908 5907 5907 5907 5906 5906 5905 5905 5904 5903 5901 5900 5898 5897 5895 5893 5892 5890 5889 5888 5886 5885 5883 5881 5879 5877 5876 5874 5871 5869 5867 5865 5864 5863 5861 5860 5858 5856 5854
5902 5903 5904 5905 5906 5906 5906 5906 5905 5905 5904 5904 5903 5902 5903 5901 5899 5898 5896 5894 5892 5890 5889 5888 5887 5885 5883 5882 5880 5878 5876 5874 5872 5870 5868 5865 5863 5862 5861 5860 5858 5856 5854 5853
5900 5901 5902 5903 5904 5904 5904 5904 5904 5903 5903 5903 5902 5902 5901 5900 5899 5897 5895 5893 5891 5890 5888 5887 5885 5884 5882 5880 5879 5877 5874 5873 5870 5868 5866 5864 5862 5860 5859 5857 5856 5854 5852 5851
5897 5899 5900 5901 5901 5902 5903 5903 5903 5902 5902 5902 5901 5900 5900 5899 5897 5895 5894 5893 5891 5889 5887 5885 5884 5882 5881 5879 5877 5875 5873 5871 5869 5866 5864 5862 5860 5859 5857 5855 5854 5852 5850 5848
5895 5897 5898 5898 5899 5900 5900 5901 5902 5901 5900 5899 5899 5898 5899 5897 5895 5894 5892 5891 5889 5888 5886 5884 5882 5880 5879 5877 5875 5873 5871 5869 5866 5864 5862 5860 5859 5857 5855 5853 5851 5849 5847 5845
5892 5894 5895 5896 5896 5897 5897 5898 5898 5898 5897 5897 5896 5896 5896 5894 5893 5892 5890 5889 5887 5885 5884 5882 5880 5878 5877 5875 5873 5871 5869 5866 5864 5862 5860 5858 5856 5854 5852 5850 5848 5846 5844 5842
5889 5891 5892 5893 5893 5894 5895 5895 5895 5895 5894 5894 5894 5893 5893 5892 5891 5890 5888 5887 5885 5883 5882 5880 5878 5876 5875 5873 5871 5869 5866 5864 5862 5859 5857 5855 5853 5851 5849 5847 5845 5843 5841 5839
5886 5887 5889 5889 5889 5890 5891 5892 5891 5891 5891 5891 5890 5893 5891 5889 5888 5887 5886 5884 5882 5881 5879 5877 5875 5874 5872 5870 5868 5866 5864 5861 5859 5856 5854 5852 5850 5848 5846 5844 5842 5840 5837 5835
5882 5883 5884 5886 5886 5887 5887 5888 5888 5888 5888 5888 5888 5891 5887 5887 5886 5885 5883 5881 5880 5878 5876 5874 5873 5871 5869 5867 5865 5863 5860 5858 5855 5853 5850 5848 5846 5844 5841 5839 5837 5835 5833 5831
5878 5879 5880 5881 5884 5884 5883 5884 5884 5885 5885 5884 5884 5887 5884 5883 5882 5881 5880 5878 5877 5875 5873 5872 5870 5868 5866 5864 5861 5859 5857 5854 5851 5849 5847 5844 5842 5839 5836 5834 5832 5830 5828 5826
5874 5875 5877 5878 5879 5879 5879 5880 5880 5881 5881 5881 5881 5882 5881 5880 5879 5878 5876 5875 5874 5872 5870 5868 5866 5864 5862 5860 5858 5856 5853 5850 5848 5845 5843 5840 5837 5835 5833 5830 5828 5825 5823 5821
5869 5870 5871 5873 5874 5874 5875 5876 5876 5877 5877 5877 5877 5877 5877 5876 5875 5874 5873 5871 5870 5869 5867 5865 5863 5861 5858 5856 5854 5852 5849 5847 5844 5841 5838 5836 5833 5830 5828 5825 5823 5820 5818 5816
5864 5865 5867 5868 5869 5870 5870 5871 5872 5872 5872 5873 5873 5873 5873 5872 5871 5870 5869 5867 5866 5864 5863 5861 5859 5856 5854 5852 5850 5847 5845 5842 5840 5837 5834 5831 5829 5826 5823 5820 5818 5815 5813 5811
5859 5860 5862 5863 5864 5864 5865 5867 5867 5867 5868 5868 5868 5869 5868 5868 5867 5865 5864 5863 5861 5860 5858 5856 5854 5852 5850 5847 5845 5843 5840 5838 5835 5832 5829 5827 5824 5821 5818 5816 5813 5811 5808 5806
5854 5855 5856 5858 5859 5860 5863 5862 5862 5862 5863 5863 5863 5864 5863 5863 5861 5861 5859 5858 5857 5855 5854 5852 5850 5847 5845 5843 5840 5837 5835 5832 5830 5827 5825 5822 5820 5817 5814 5811 5808 5806 5803 5801
5848 5850 5851 5852 5853 5854 5856 5857 5857 5857 5858 5858 5858 5858 5858 5857 5856 5856 5854 5853 5852 5850 5849 5847 5845 5842 5840 5837 5835 5832 5829 5827 5825 5822 5820 5817 5814 5811 5808 5806 5803 5800 5798 5795
5842 5843 5845 5846 5847 5848 5852 5852 5852 5853 5853 5853 5853 5853 5852 5852 5851 5851 5849 5848 5846 5844 5843 5841 5839 5837 5834 5832 5829 5827 5824 5822 5820 5817 5814 5811 5808 5806 5803 5800 5797 5794 5792 5789
5835 5836 5838 5839 5840 5842 5845 5846 5847 5848 5849 5848 5848 5847 5847 5846 5846 5846 5844 5842 5841 5839 5837 5835 5833 5831 5829 5826 5824 5821 5819 5816 5814 5811 5808 5806 5803 5800 5797 5794 5791 5788 5785 5783
5828 5829 5831 5833 5835 5838 5839 5840 5841 5842 5842 5841 5841 5841 5841 5841 5840 5839 5838 5837 5835 5833 5832 5830 5827 5825 5823 5820 5818 5816 5813 5810 5808 5805 5803 5800 5797 5794 5791 5788 5784 5781 5779 5776
5820 5823 5824 5827 5830 5831 5832 5833 5834 5835 5835 5835 5835 5835 5835 5835 5834 5833 5832 5830 5829 5827 5825 5823 5821 5819 5817 5815 5812 5810 5807 5804 5801 5799 5796 5793 5790 5787 5784 5781 5778 5775 5772 5768
5812 5814 5817 5819 5821 5823 5824 5826 5827 5828 5829 5829 5829 5829 5829 5828 5827 5826 5825 5824 5822 5821 5819 5817 5815 5813 5811 5808 5806 5803 5800 5797 5794 5792 5789 5786 5784 5781 5777 5774 5771 5768 5764 5761
5804 5806 5808 5811 5813 5815 5817 5818 5820 5820 5821 5822 5822 5822 5822 5821 5820 5819 5818 5817 5816 5814 5812 5810 5808 5806 5804 5801 5799 5796 5793 5791 5788 5785 5782 5779 5777 5774 5770 5767 5764 5761 5757 5754
5796 5798 5801 5803 5806 5808 5810 5811 5812 5813 5814 5815 5815 5815 5815 5814 5813 5812 5811 5810 5809 5807 5805 5803 5801 5799 5796 5794 5792 5789 5786 5784 5781 5778 5776 5773 5770 5767 5763 5760 5757 5753 5750 5747